Time,TemperatureF,DewpointF,PressureIn,WindDirection,WindDirectionDegrees,WindSpeedMPH,WindSpeedGustMPH,Humidity,HourlyPrecipIn,Conditions,Clouds,dailyrainin,SoftwareType,DateUTC
2013-06-22 00:04:00,53.6,48.0,29.77,North,0,0.0,0.0,81,0.00,,,0.00,WUHU216HW,2013-06-22 07:04:00,
2013-06-22 00:30:00,53.1,47.8,29.77,North,0,0.0,0.0,82,0.00,,,0.00,WUHU216HW,2013-06-22 07:30:00,
2013-06-22 00:35:00,53.1,47.8,29.77,North,0,0.0,0.0,82,0.00,,,0.00,WUHU216HW,2013-06-22 07:35:00,
2013-06-22 00:59:00,52.6,47.3,29.76,North,0,0.0,0.0,82,0.00,,,0.00,WUHU216HW,2013-06-22 07:59:00,
2013-06-22 01:04:00,52.6,47.3,29.76,North,0,0.0,0.0,82,0.00,,,0.00,WUHU216HW,2013-06-22 08:04:00,
2013-06-22 01:30:00,52.2,47.5,29.76,North,0,0.0,0.0,84,0.00,,,0.00,WUHU216HW,2013-06-22 08:30:00,
2013-06-22 01:35:00,52.2,47.5,29.76,North,0,0.0,0.0,84,0.00,,,0.00,WUHU216HW,2013-06-22 08:35:00,
2013-06-22 01:59:00,51.8,47.4,29.76,North,0,0.0,0.0,85,0.00,,,0.00,WUHU216HW,2013-06-22 08:59:00,
2013-06-22 02:04:00,51.8,47.4,29.76,North,0,0.0,0.0,85,0.00,,,0.00,WUHU216HW,2013-06-22 09:04:00,
2013-06-22 02:30:00,51.3,46.9,29.76,North,0,0.0,0.0,85,0.00,,,0.00,WUHU216HW,2013-06-22 09:30:00,
2013-06-22 02:35:00,51.3,46.9,29.76,North,0,0.0,0.0,85,0.00,,,0.00,WUHU216HW,2013-06-22 09:35:00,
2013-06-22 02:59:00,50.8,46.6,29.75,North,0,0.0,0.0,86,0.00,,,0.00,WUHU216HW,2013-06-22 09:59:00,
2013-06-22 03:04:00,50.8,46.6,29.75,North,0,0.0,0.0,86,0.00,,,0.00,WUHU216HW,2013-06-22 10:04:00,
2013-06-22 03:30:00,50.4,46.3,29.76,North,0,0.0,0.0,86,0.00,,,0.00,WUHU216HW,2013-06-22 10:30:00,
2013-06-22 03:35:00,50.4,46.3,29.76,North,0,0.0,0.0,86,0.00,,,0.00,WUHU216HW,2013-06-22 10:35:00,
2013-06-22 03:59:00,50.0,45.9,29.74,North,0,0.0,0.0,86,0.00,,,0.00,WUHU216HW,2013-06-22 10:59:00,
2013-06-22 04:04:00,50.0,45.9,29.74,North,0,0.0,0.0,86,0.00,,,0.00,WUHU216HW,2013-06-22 11:04:00,
2013-06-22 04:29:00,49.7,45.6,29.74,North,0,0.0,0.0,86,0.00,,,0.00,WUHU216HW,2013-06-22 11:29:00,
2013-06-22 04:34:00,49.7,45.6,29.74,North,0,0.0,0.0,86,0.00,,,0.00,WUHU216HW,2013-06-22 11:34:00,
2013-06-22 04:59:00,49.3,45.3,29.74,North,0,0.0,0.0,86,0.00,,,0.00,WUHU216HW,2013-06-22 11:59:00,
2013-06-22 05:04:00,49.3,45.3,29.74,North,0,0.0,0.0,86,0.00,,,0.00,WUHU216HW,2013-06-22 12:04:00,
2013-06-22 05:09:00,49.3,45.3,29.74,North,0,0.0,0.0,86,0.00,,,0.00,WUHU216HW,2013-06-22 12:09:00,
2013-06-22 05:29:00,49.1,45.1,29.74,North,0,0.0,0.0,86,0.00,,,0.00,WUHU216HW,2013-06-22 12:29:00,
2013-06-22 05:35:00,49.1,45.1,29.74,North,0,0.0,0.0,86,0.00,,,0.00,WUHU216HW,2013-06-22 12:35:00,
2013-06-22 05:59:00,49.0,44.9,29.73,North,0,0.0,0.0,86,0.00,,,0.00,WUHU216HW,2013-06-22 12:59:00,
2013-06-22 06:04:00,49.0,44.9,29.73,North,0,0.0,0.0,86,0.00,,,0.00,WUHU216HW,2013-06-22 13:04:00,
2013-06-22 06:09:00,49.0,44.9,29.73,North,0,0.0,0.0,86,0.00,,,0.00,WUHU216HW,2013-06-22 13:09:00,
2013-06-22 06:30:00,49.3,45.5,29.74,North,0,0.0,0.0,87,0.00,,,0.00,WUHU216HW,2013-06-22 13:30:00,
2013-06-22 06:35:00,49.3,45.5,29.74,North,0,0.0,0.0,87,0.00,,,0.00,WUHU216HW,2013-06-22 13:35:00,
2013-06-22 06:59:00,50.2,46.7,29.74,North,0,0.0,0.0,88,0.00,,,0.00,WUHU216HW,2013-06-22 13:59:00,
2013-06-22 07:04:00,50.2,46.7,29.74,North,0,0.0,0.0,88,0.00,,,0.00,WUHU216HW,2013-06-22 14:04:00,
2013-06-22 07:09:00,50.2,46.7,29.74,North,0,0.0,0.0,88,0.00,,,0.00,WUHU216HW,2013-06-22 14:09:00,
2013-06-22 07:30:00,54.4,51.5,29.73,North,0,0.0,0.0,90,0.00,,,0.00,WUHU216HW,2013-06-22 14:30:00,
2013-06-22 07:35:00,54.4,51.5,29.73,North,0,0.0,0.0,90,0.00,,,0.00,WUHU216HW,2013-06-22 14:35:00,
2013-06-22 07:59:00,59.4,55.3,29.72,North,0,0.0,0.0,86,0.00,,,0.00,WUHU216HW,2013-06-22 14:59:00,
2013-06-22 08:04:00,59.4,55.3,29.72,North,0,0.0,0.0,86,0.00,,,0.00,WUHU216HW,2013-06-22 15:04:00,
2013-06-22 08:09:00,59.4,55.3,29.72,North,0,0.0,0.0,86,0.00,,,0.00,WUHU216HW,2013-06-22 15:09:00,
2013-06-22 08:30:00,61.9,55.7,29.71,North,0,0.0,0.0,80,0.00,,,0.00,WUHU216HW,2013-06-22 15:30:00,
2013-06-22 08:35:00,61.9,55.7,29.71,North,0,0.0,0.0,80,0.00,,,0.00,WUHU216HW,2013-06-22 15:35:00,
2013-06-22 08:59:00,64.1,56.7,29.71,North,0,0.0,0.0,77,0.00,,,0.00,WUHU216HW,2013-06-22 15:59:00,
2013-06-22 09:04:00,64.1,56.7,29.71,North,0,0.0,0.0,77,0.00,,,0.00,WUHU216HW,2013-06-22 16:04:00,
2013-06-22 09:09:00,64.1,56.7,29.71,North,0,0.0,0.0,77,0.00,,,0.00,WUHU216HW,2013-06-22 16:09:00,
2013-06-22 09:30:00,67.0,58.4,29.70,North,0,0.0,0.0,74,0.00,,,0.00,WUHU216HW,2013-06-22 16:30:00,
2013-06-22 09:34:00,67.0,58.4,29.70,North,0,0.0,0.0,74,0.00,,,0.00,WUHU216HW,2013-06-22 16:34:00,
2013-06-22 09:59:00,68.4,58.3,29.70,North,0,0.0,0.0,70,0.00,,,0.00,WUHU216HW,2013-06-22 16:59:00,
2013-06-22 10:04:00,68.4,58.3,29.70,North,0,0.0,0.0,70,0.00,,,0.00,WUHU216HW,2013-06-22 17:04:00,
2013-06-22 10:29:00,69.3,57.9,29.69,North,0,0.0,0.0,67,0.00,,,0.00,WUHU216HW,2013-06-22 17:29:00,
2013-06-22 10:34:00,69.3,57.9,29.69,North,0,0.0,0.0,67,0.00,,,0.00,WUHU216HW,2013-06-22 17:34:00,
2013-06-22 10:59:00,70.4,58.1,29.68,North,0,0.0,0.0,65,0.00,,,0.00,WUHU216HW,2013-06-22 17:59:00,
2013-06-22 11:04:00,70.4,58.1,29.68,North,0,0.0,0.0,65,0.00,,,0.00,WUHU216HW,2013-06-22 18:04:00,
2013-06-22 11:29:00,71.3,58.1,29.67,North,0,0.0,0.0,63,0.00,,,0.00,WUHU216HW,2013-06-22 18:29:00,
2013-06-22 11:34:00,71.3,58.1,29.67,North,0,0.0,0.0,63,0.00,,,0.00,WUHU216HW,2013-06-22 18:34:00,
2013-06-22 11:59:00,72.0,57.8,29.66,North,0,0.0,0.0,61,0.00,,,0.00,WUHU216HW,2013-06-22 18:59:00,
2013-06-22 12:04:00,72.0,57.8,29.66,North,0,0.0,0.0,61,0.00,,,0.00,WUHU216HW,2013-06-22 19:04:00,
2013-06-22 12:29:00,73.1,56.3,29.66,North,0,0.0,0.0,56,0.00,,,0.00,WUHU216HW,2013-06-22 19:29:00,
2013-06-22 12:34:00,73.1,56.3,29.66,North,0,0.0,0.0,56,0.00,,,0.00,WUHU216HW,2013-06-22 19:34:00,
2013-06-22 12:59:00,73.6,55.8,29.65,North,0,0.0,0.0,54,0.00,,,0.00,WUHU216HW,2013-06-22 19:59:00,
2013-06-22 13:04:00,73.6,55.8,29.65,North,0,0.0,0.0,54,0.00,,,0.00,WUHU216HW,2013-06-22 20:04:00,
2013-06-22 13:29:00,74.2,55.9,29.64,North,0,0.0,0.0,53,0.00,,,0.00,WUHU216HW,2013-06-22 20:29:00,
2013-06-22 13:34:00,74.2,55.9,29.64,North,0,0.0,0.0,53,0.00,,,0.00,WUHU216HW,2013-06-22 20:34:00,
2013-06-22 13:59:00,75.4,55.6,29.63,North,0,0.0,0.0,50,0.00,,,0.00,WUHU216HW,2013-06-22 20:59:00,
2013-06-22 14:04:00,75.4,55.6,29.63,North,0,0.0,0.0,50,0.00,,,0.00,WUHU216HW,2013-06-22 21:04:00,
2013-06-22 14:29:00,76.7,57.8,29.62,North,0,0.0,0.0,52,0.00,,,0.00,WUHU216HW,2013-06-22 21:29:00,
2013-06-22 14:34:00,76.7,57.8,29.62,North,0,0.0,0.0,52,0.00,,,0.00,WUHU216HW,2013-06-22 21:34:00,
2013-06-22 14:59:00,76.7,56.7,29.61,North,0,0.0,0.0,50,0.00,,,0.00,WUHU216HW,2013-06-22 21:59:00,
2013-06-22 15:04:00,76.7,56.7,29.61,North,0,0.0,0.0,50,0.00,,,0.00,WUHU216HW,2013-06-22 22:04:00,
2013-06-22 15:29:00,75.8,55.9,29.61,North,0,0.0,0.0,50,0.00,,,0.00,WUHU216HW,2013-06-22 22:29:00,
2013-06-22 15:34:00,75.8,55.9,29.61,North,0,0.0,0.0,50,0.00,,,0.00,WUHU216HW,2013-06-22 22:34:00,
2013-06-22 15:39:00,75.8,55.9,29.61,North,0,0.0,0.0,50,0.00,,,0.00,WUHU216HW,2013-06-22 22:39:00,
2013-06-22 15:59:00,77.0,55.8,29.60,North,0,0.0,0.0,48,0.00,,,0.00,WUHU216HW,2013-06-22 22:59:00,
2013-06-22 16:04:00,77.0,55.8,29.60,North,0,0.0,0.0,48,0.00,,,0.00,WUHU216HW,2013-06-22 23:04:00,
2013-06-22 16:30:00,77.6,56.4,29.59,North,0,0.0,0.0,48,0.00,,,0.00,WUHU216HW,2013-06-22 23:30:00,
2013-06-22 16:35:00,77.6,56.4,29.59,North,0,0.0,0.0,48,0.00,,,0.00,WUHU216HW,2013-06-22 23:35:00,
2013-06-22 16:59:00,77.9,56.6,29.58,North,0,0.0,0.0,48,0.00,,,0.00,WUHU216HW,2013-06-22 23:59:00,
2013-06-22 17:04:00,77.9,56.6,29.58,North,0,0.0,0.0,48,0.00,,,0.00,WUHU216HW,2013-06-23 00:04:00,
2013-06-22 17:29:00,78.5,58.3,29.57,North,0,0.0,0.0,50,0.00,,,0.00,WUHU216HW,2013-06-23 00:29:00,
2013-06-22 17:34:00,78.5,58.3,29.57,North,0,0.0,0.0,50,0.00,,,0.00,WUHU216HW,2013-06-23 00:34:00,
2013-06-22 17:59:00,78.1,56.8,29.56,North,0,0.0,0.0,48,0.00,,,0.00,WUHU216HW,2013-06-23 00:59:00,
2013-06-22 18:04:00,78.1,56.8,29.56,North,0,0.0,0.0,48,0.00,,,0.00,WUHU216HW,2013-06-23 01:04:00,
2013-06-22 18:29:00,77.9,57.9,29.55,North,0,0.0,0.0,50,0.00,,,0.00,WUHU216HW,2013-06-23 01:29:00,
2013-06-22 18:34:00,77.9,57.9,29.55,North,0,0.0,0.0,50,0.00,,,0.00,WUHU216HW,2013-06-23 01:34:00,
2013-06-22 18:59:00,77.4,59.0,29.54,North,0,0.0,0.0,53,0.00,,,0.00,WUHU216HW,2013-06-23 01:59:00,
2013-06-22 19:04:00,77.4,59.0,29.54,North,0,0.0,0.0,53,0.00,,,0.00,WUHU216HW,2013-06-23 02:04:00,
2013-06-22 19:09:00,77.4,59.0,29.54,North,0,0.0,0.0,53,0.00,,,0.00,WUHU216HW,2013-06-23 02:09:00,
2013-06-22 19:30:00,76.0,59.1,29.54,North,0,0.0,0.0,56,0.00,,,0.00,WUHU216HW,2013-06-23 02:30:00,
2013-06-22 19:35:00,76.0,59.1,29.54,North,0,0.0,0.0,56,0.00,,,0.00,WUHU216HW,2013-06-23 02:35:00,
2013-06-22 19:59:00,74.0,58.2,29.54,North,0,0.0,0.0,58,0.00,,,0.00,WUHU216HW,2013-06-23 02:59:00,
2013-06-22 20:04:00,74.0,58.2,29.54,North,0,0.0,0.0,58,0.00,,,0.00,WUHU216HW,2013-06-23 03:04:00,
2013-06-22 20:09:00,74.0,58.2,29.54,North,0,0.0,0.0,58,0.00,,,0.00,WUHU216HW,2013-06-23 03:09:00,
2013-06-22 20:29:00,72.5,58.8,29.54,North,0,0.0,0.0,62,0.00,,,0.00,WUHU216HW,2013-06-23 03:29:00,
2013-06-22 20:34:00,72.5,58.8,29.54,North,0,0.0,0.0,62,0.00,,,0.00,WUHU216HW,2013-06-23 03:34:00,
2013-06-22 20:59:00,70.9,58.5,29.54,North,0,0.0,0.0,65,0.00,,,0.00,WUHU216HW,2013-06-23 03:59:00,
2013-06-22 21:01:00,70.9,58.5,29.54,North,0,0.0,0.0,65,0.00,,,0.00,WUHU216HW,2013-06-23 04:01:00,
2013-06-22 21:06:00,70.9,58.5,29.54,North,0,0.0,0.0,65,0.00,,,0.00,WUHU216HW,2013-06-23 04:06:00,
2013-06-22 21:30:00,68.8,56.9,29.54,North,0,0.0,0.0,66,0.00,,,0.00,WUHU216HW,2013-06-23 04:30:00,
2013-06-22 21:35:00,68.8,56.9,29.54,North,0,0.0,0.0,66,0.00,,,0.00,WUHU216HW,2013-06-23 04:35:00,
2013-06-22 21:59:00,67.0,56.1,29.53,North,0,0.0,0.0,68,0.00,,,0.00,WUHU216HW,2013-06-23 04:59:00,
2013-06-22 22:04:00,67.0,56.1,29.53,North,0,0.0,0.0,68,0.00,,,0.00,WUHU216HW,2013-06-23 05:04:00,
2013-06-22 22:09:00,67.0,56.1,29.53,North,0,0.0,0.0,68,0.00,,,0.00,WUHU216HW,2013-06-23 05:09:00,
2013-06-22 22:30:00,65.2,55.2,29.53,North,0,0.0,0.0,70,0.00,,,0.00,WUHU216HW,2013-06-23 05:30:00,
2013-06-22 22:35:00,65.2,55.2,29.53,North,0,0.0,0.0,70,0.00,,,0.00,WUHU216HW,2013-06-23 05:35:00,
2013-06-22 22:59:00,64.1,54.5,29.53,North,0,0.0,0.0,71,0.00,,,0.00,WUHU216HW,2013-06-23 05:59:00,
2013-06-22 23:01:00,64.1,54.5,29.53,North,0,0.0,0.0,71,0.00,,,0.00,WUHU216HW,2013-06-23 06:01:00,
2013-06-22 23:06:00,64.1,54.5,29.53,North,0,0.0,0.0,71,0.00,,,0.00,WUHU216HW,2013-06-23 06:06:00,
2013-06-22 23:30:00,63.0,54.2,29.52,North,0,0.0,0.0,73,0.00,,,0.00,WUHU216HW,2013-06-23 06:30:00,
2013-06-22 23:35:00,63.0,54.2,29.52,North,0,0.0,0.0,73,0.00,,,0.00,WUHU216HW,2013-06-23 06:35:00,
2013-06-22 23:59:00,62.1,53.4,29.51,North,0,0.0,0.0,73,0.00,,,0.00,WUHU216HW,2013-06-23 06:59:00,